C/2021 G2 ( ATLAS )

Japanese version
Home page
Updated on March 5, 2023

---------------------------------------------------------------------

* Profile

Discovery Date April 11, 2021
Magnitude 19.3 mag
Discoverer Asteroid Terrestrial-Impact Last Alert System (ATLAS) search program

* Pictures

* Orbital Elements

Epoch 2023 Feb. 25.0 TT = JDT 2460000.5
T 2024 Sept.  9.69945 TT                                Rudenko
q   4.9810199            (2000.0)            P               Q
z  +0.0001683      Peri.  343.33385     -0.84691723     +0.20136570
 +/-0.0000030      Node   221.09773     -0.36090098     -0.89737505
e   0.9991617      Incl.   48.47348     -0.39048903     +0.39264471
>From 427 observations 2020 Nov. 3-2022 Nov. 29, mean residual 0".4.

* Finding Charts

* Magnitudes Graph

        m1 = 3.3 + 5 log d + 10.0 log r

---------------------------------------------------------------------

The orbital elements are published on M.P.E.C. 2022-W269.
The charts are made with StellaNavigator Ver.10 (AstroArts).
The magnitudes graphs are made with Comet for Windows.

---------------------------------------------------------------------

Copyright(C) Seiichi Yoshida (comet@aerith.net). All rights reserved.